EW9766 Weather Reports


Display with metric or nautical units.
time (UTC)temp
F
wind
direction
speed
MPH
gust
MPH
rain 1hr
in
rain 24hr
in
rain mn
in
humidity
%
barometer
mb
20201128163041 35 170 3.0 0.0 0.00 0.00 0.00 86 1025.0
20201128161534 35 235 1.0 0.0 0.00 0.00 0.00 85 1024.6
20201128160042 35 180 1.0 0.0 0.00 0.00 0.00 84 1024.6
20201128154540 35 170 3.0 0.0 0.00 0.00 0.00 83 1024.6
20201128153046 36 175 2.0 0.0 0.00 0.00 0.00 82 1024.6
20201128151538 36 194 2.0 0.0 0.00 0.00 0.00 81 1024.3
20201128150046 36 158 3.0 0.0 0.00 0.00 0.00 79 1024.3
20201128144539 36 183 1.0 0.0 0.00 0.00 0.00 78 1024.3
20201128143040 36 7 2.0 0.0 0.00 0.00 0.00 75 1023.9
20201128141539 37 287 4.0 0.0 0.00 0.00 0.00 73 1023.5
20201128140044 37 150 5.0 0.0 0.00 0.00 0.00 72 1023.2
20201128134542 36 146 4.0 0.0 0.00 0.00 0.00 71 1023.5
20201128133039 35 196 4.0 0.0 0.00 0.00 0.00 69 1023.5
20201128131550 37 337 3.0 0.0 0.00 0.00 0.00 64 1023.5
20201128130040 38 157 5.0 0.0 0.00 0.00 0.00 62 1023.2
20201128124532 37 148 7.0 0.0 0.00 0.00 0.00 62 1023.2
20201128123038 37 143 6.0 0.0 0.00 0.00 0.00 62 1023.2
20201128121540 36 144 6.0 0.0 0.00 0.00 0.00 64 1023.2
20201128120031 35 145 5.0 0.0 0.00 0.00 0.00 66 1023.2
20201128114538 35 141 5.0 0.0 0.00 0.00 0.00 65 1023.2
20201128113046 34 135 7.0 0.0 0.00 0.00 0.00 68 1023.2
20201128111535 32 137 6.0 0.0 0.00 0.00 0.00 70 1023.2
20201128110114 33 164 5.0 0.0 0.00 0.00 0.00 70 1023.2
20201128104609 32 157 6.0 0.0 0.00 0.00 0.00 72 1022.8
20201128103038 31 157 5.0 0.0 0.00 0.00 0.00 74 1022.8
20201128101529 31 168 4.0 0.0 0.00 0.00 0.00 75 1022.8
20201128100044 31 184 3.0 0.0 0.00 0.00 0.00 74 1022.8
20201128094601 31 168 3.0 0.0 0.00 0.00 0.00 73 1022.4
20201128093036 32 178 4.0 0.0 0.00 0.00 0.00 73 1022.8
20201128091532 32 169 4.0 0.0 0.00 0.00 0.00 73 1022.8
20201128090038 31 142 5.0 0.0 0.00 0.00 0.00 73 1022.8
20201128084537 31 146 4.0 0.0 0.00 0.00 0.00 74 1022.8
20201128083031 31 154 4.0 0.0 0.00 0.00 0.00 73 1022.8
20201128081545 32 159 3.0 0.0 0.00 0.00 0.00 71 1022.4
20201128080041 34 177 3.0 0.0 0.00 0.00 0.00 69 1022.4
20201128074540 33 159 5.0 0.0 0.00 0.00 0.00 71 1022.4
20201128073110 33 139 4.0 0.0 0.00 0.00 0.00 72 1022.4
20201128071539 32 159 4.0 0.0 0.00 0.00 0.00 73 1022.4
20201128070034 33 178 4.0 0.0 0.00 0.00 0.00 71 1022.4
20201128064541 34 157 4.0 0.0 0.00 0.00 0.00 70 1022.1
20201128063051 34 141 4.0 0.0 0.00 0.00 0.00 69 1022.1
20201128061537 35 155 5.0 0.0 0.00 0.00 0.00 69 1022.1
20201128060036 33 146 7.0 0.0 0.00 0.00 0.00 74 1022.1
20201128054547 33 153 5.0 0.0 0.00 0.00 0.00 77 1022.1
20201128053046 31 156 5.0 0.0 0.00 0.00 0.00 81 1021.7
20201128051542 31 193 2.0 0.0 0.00 0.00 0.00 81 1022.1
20201128050055 31 160 5.0 0.0 0.00 0.00 0.00 83 1021.7
20201128043038 31 175 4.0 0.0 0.00 0.00 0.00 84 1022.1
20201128041542 31 160 4.0 0.0 0.00 0.00 0.00 84 1021.7
20201128040110 30 152 5.0 0.0 0.00 0.00 0.00 86 1021.7
20201128034538 31 164 4.0 0.0 0.00 0.00 0.00 86 1021.7
20201128033114 31 168 4.0 0.0 0.00 0.00 0.00 85 1022.1
20201128031537 31 154 5.0 0.0 0.00 0.00 0.00 85 1022.1
20201128030052 32 173 4.0 0.0 0.00 0.00 0.00 85 1022.1
20201128024534 32 181 3.0 0.0 0.00 0.00 0.00 85 1022.1
20201128023048 32 177 4.0 0.0 0.00 0.00 0.00 86 1021.7
20201128021546 32 182 3.0 0.0 0.00 0.00 0.00 86 1022.1
20201128020047 32 189 3.0 0.0 0.00 0.00 0.00 85 1021.7
20201128014555 32 152 3.0 0.0 0.00 0.00 0.00 85 1021.7
20201128013034 33 155 3.0 0.0 0.00 0.00 0.00 84 1021.7
20201128011536 34 169 3.0 0.0 0.00 0.00 0.00 83 1022.1
20201128010040 35 161 3.0 0.0 0.00 0.00 0.00 82 1022.4
20201128004533 35 177 3.0 0.0 0.00 0.00 0.00 80 1022.4
20201128003038 37 180 2.0 0.0 0.00 0.00 0.00 78 1022.8
20201128001544 38 180 3.0 0.0 0.00 0.00 0.00 76 1022.8
20201128000039 39 180 3.0 0.0 0.00 0.00 0.00 73 1023.2
20201127234539 40 218 1.0 0.0 0.00 0.00 0.00 69 1023.2
20201127233043 42 292 0.0 0.0 0.00 0.00 0.00 67 1023.2
20201127231534 43 303 0.0 0.0 0.00 0.00 0.00 65 1023.2
20201127230057 44 360 0.0 0.0 0.00 0.00 0.00 65 1023.5
20201127224611 44 360 0.0 0.0 0.00 0.00 0.00 64 1023.5
20201127223038 45 358 0.0 0.0 0.00 0.00 0.00 63 1023.9
20201127221550 45 326 2.0 0.0 0.00 0.00 0.00 62 1023.9
20201127220040 46 340 2.0 0.0 0.00 0.00 0.00 62 1023.9
20201127214538 46 230 0.0 0.0 0.00 0.00 0.00 62 1023.9
20201127213032 46 308 1.0 0.0 0.00 0.00 0.00 63 1024.3
20201127211534 46 318 1.0 0.0 0.00 0.00 0.00 65 1024.6
20201127210048 44 291 1.0 0.0 0.00 0.00 0.00 66 1024.6
20201127204537 44 335 2.0 0.0 0.00 0.00 0.00 66 1025.0
20201127203038 44 330 1.0 0.0 0.00 0.00 0.00 67 1025.0
20201127201530 43 316 2.0 0.0 0.00 0.00 0.00 68 1025.0
20201127200037 43 348 1.0 0.0 0.00 0.00 0.00 67 1025.3
20201127194535 44 312 1.0 0.0 0.00 0.00 0.00 68 1025.7
20201127193039 43 278 1.0 0.0 0.00 0.00 0.00 70 1025.7
20201127191550 42 340 1.0 0.0 0.00 0.00 0.00 71 1026.1
20201127190101 42 338 2.0 0.0 0.00 0.00 0.00 72 1026.1
20201127184541 42 330 1.0 0.0 0.00 0.00 0.00 75 1026.1
20201127183101 40 266 0.0 0.0 0.00 0.00 0.00 80 1026.1
20201127181550 38 326 0.0 0.0 0.00 0.00 0.00 83 1026.4
20201127180051 37 300 0.0 0.0 0.00 0.00 0.00 84 1026.4
20201127174539 37 260 0.0 0.0 0.00 0.00 0.00 85 1026.4
20201127173042 37 180 0.0 0.0 0.00 0.00 0.00 88 1026.4
20201127171534 35 180 1.0 0.0 0.00 0.00 0.00 89 1026.4
20201127170034 33 180 2.0 0.0 0.00 0.00 0.00 91 1026.4
20201127164543 30 179 2.0 0.0 0.00 0.00 0.00 93 1026.1